| time (UTC) | temp C | wind direction | speed KPH | gust KPH | rain 1hr cm | rain 24hr cm | rain mn cm | humidity % | barometer mb |
| 20260506025525 | 8 | 357 | 6.4 | 29.0 | 0.00 | 0.00 | 0.00 | 82 | 1010.7 |
| 20260506025026 | 9 | 11 | 12.9 | 29.0 | 0.00 | 0.00 | 0.00 | 82 | 1010.8 |
| 20260506024536 | 9 | 50 | 9.7 | 22.5 | 0.00 | 0.00 | 0.00 | 81 | 1010.8 |
| 20260506024021 | 9 | 59 | 12.9 | 22.5 | 0.00 | 0.00 | 0.00 | 81 | 1010.9 |
| 20260506023520 | 9 | 94 | 3.2 | 20.9 | 0.00 | 0.00 | 0.00 | 81 | 1010.8 |
| 20260506023019 | 9 | 357 | 8.0 | 22.5 | 0.00 | 0.00 | 0.00 | 81 | 1010.8 |
| 20260506022521 | 9 | 357 | 8.0 | 25.7 | 0.00 | 0.00 | 0.00 | 80 | 1010.8 |
| 20260506022017 | 9 | 357 | 12.9 | 29.0 | 0.00 | 0.00 | 0.00 | 80 | 1010.7 |
| 20260506021516 | 9 | 39 | 12.9 | 29.0 | 0.00 | 0.00 | 0.00 | 80 | 1010.7 |
| 20260506021012 | 9 | 34 | 8.0 | 27.4 | 0.00 | 0.00 | 0.00 | 80 | 1010.8 |
| 20260506020517 | 9 | 65 | 6.4 | 27.4 | 0.00 | 0.00 | 0.00 | 80 | 1010.7 |
| 20260506020010 | 9 | 150 | 11.3 | 25.7 | 0.00 | 0.00 | 0.00 | 80 | 1010.7 |
| 20260506015510 | 9 | 357 | 3.2 | 19.3 | 0.00 | 0.00 | 0.00 | 80 | 1010.6 |
| 20260506015009 | 9 | 44 | 6.4 | 22.5 | 0.00 | 0.00 | 0.00 | 80 | 1010.3 |
| 20260506014512 | 9 | 25 | 6.4 | 22.5 | 0.00 | 0.00 | 0.00 | 80 | 1010.4 |
| 20260506014007 | 9 | 50 | 9.7 | 20.9 | 0.00 | 0.00 | 0.00 | 80 | 1010.3 |
| 20260506013507 | 9 | 73 | 4.8 | 20.9 | 0.00 | 0.00 | 0.00 | 80 | 1010.1 |
| 20260506013008 | 9 | 357 | 8.0 | 20.9 | 0.00 | 0.00 | 0.00 | 80 | 1010.4 |
| 20260506012506 | 9 | 357 | 6.4 | 24.1 | 0.00 | 0.00 | 0.00 | 80 | 1010.2 |
| 20260506012003 | 9 | 357 | 8.0 | 24.1 | 0.00 | 0.00 | 0.00 | 80 | 1010.1 |
| 20260506011503 | 10 | 357 | 9.7 | 22.5 | 0.00 | 0.00 | 0.00 | 79 | 1010.2 |
| 20260506011001 | 10 | 28 | 8.0 | 19.3 | 0.00 | 0.00 | 0.00 | 79 | 1010.1 |
| 20260506010501 | 10 | 357 | 9.7 | 19.3 | 0.00 | 0.00 | 0.00 | 79 | 1009.8 |
| 20260506010100 | 10 | 71 | 4.8 | 16.1 | 0.00 | 0.00 | 0.00 | 79 | 1009.7 |
| 20260506005603 | 10 | 357 | 4.8 | 20.9 | 0.00 | 0.00 | 0.00 | 79 | 1009.4 |
| 20260506005058 | 10 | 43 | 4.8 | 20.9 | 0.00 | 0.00 | 0.00 | 78 | 1009.3 |
| 20260506004559 | 10 | 47 | 8.0 | 22.5 | 0.00 | 0.00 | 0.00 | 78 | 1009.2 |
| 20260506004056 | 10 | 63 | 6.4 | 24.1 | 0.00 | 0.00 | 0.00 | 77 | 1009.1 |
| 20260506003555 | 10 | 41 | 8.0 | 20.9 | 0.00 | 0.00 | 0.00 | 77 | 1009.0 |
| 20260506003057 | 10 | 357 | 8.0 | 24.1 | 0.00 | 0.00 | 0.00 | 76 | 1009.0 |
| 20260506002555 | 10 | 357 | 8.0 | 24.1 | 0.00 | 0.00 | 0.00 | 76 | 1008.8 |
| 20260506002054 | 10 | 357 | 9.7 | 22.5 | 0.00 | 0.00 | 0.00 | 75 | 1009.0 |
| 20260506001606 | 10 | 76 | 8.0 | 22.5 | 0.00 | 0.00 | 0.00 | 75 | 1008.9 |
| 20260506001053 | 10 | 44 | 9.7 | 22.5 | 0.00 | 0.00 | 0.00 | 74 | 1009.0 |
| 20260506000552 | 10 | 60 | 3.2 | 20.9 | 0.00 | 0.00 | 0.00 | 74 | 1008.9 |
| 20260506000053 | 10 | 29 | 8.0 | 20.9 | 0.00 | 0.00 | 0.00 | 74 | 1008.9 |
| 20260505235550 | 10 | 357 | 9.7 | 22.5 | 0.00 | 0.00 | 0.00 | 74 | 1008.8 |
| 20260505235050 | 11 | 357 | 11.3 | 27.4 | 0.00 | 0.00 | 0.00 | 74 | 1008.5 |
| 20260505234551 | 11 | 357 | 8.0 | 27.4 | 0.00 | 0.00 | 0.00 | 74 | 1008.4 |
| 20260505234051 | 11 | 56 | 6.4 | 25.7 | 0.00 | 0.00 | 0.00 | 74 | 1008.7 |
| 20260505233547 | 11 | 42 | 12.9 | 25.7 | 0.00 | 0.00 | 0.00 | 74 | 1008.5 |
| 20260505233046 | 11 | 71 | 9.7 | 22.5 | 0.00 | 0.00 | 0.00 | 74 | 1008.8 |
| 20260505232547 | 11 | 34 | 11.3 | 20.9 | 0.00 | 0.00 | 0.00 | 75 | 1008.7 |
| 20260505232046 | 11 | 18 | 8.0 | 20.9 | 0.00 | 0.00 | 0.00 | 75 | 1009.1 |
| 20260505231558 | 11 | 39 | 9.7 | 19.3 | 0.00 | 0.00 | 0.00 | 75 | 1008.9 |
| 20260505231044 | 11 | 55 | 8.0 | 24.1 | 0.00 | 0.00 | 0.00 | 75 | 1008.8 |
| 20260505230543 | 11 | 52 | 6.4 | 24.1 | 0.00 | 0.00 | 0.00 | 75 | 1009.0 |
| 20260505230054 | 11 | 76 | 9.7 | 22.5 | 0.00 | 0.00 | 0.00 | 75 | 1008.3 |
| 20260505225543 | 11 | 40 | 12.9 | 22.5 | 0.00 | 0.00 | 0.00 | 75 | 1008.4 |
| 20260505225044 | 11 | 357 | 9.7 | 20.9 | 0.00 | 0.00 | 0.00 | 75 | 1008.4 |
| 20260505224542 | 11 | 10 | 9.7 | 20.9 | 0.00 | 0.00 | 0.00 | 75 | 1008.4 |
| 20260505224041 | 11 | 357 | 3.2 | 19.3 | 0.00 | 0.00 | 0.00 | 75 | 1008.6 |
| 20260505223540 | 11 | 357 | 4.8 | 19.3 | 0.00 | 0.00 | 0.00 | 76 | 1008.3 |
| 20260505223040 | 11 | 16 | 8.0 | 24.1 | 0.00 | 0.00 | 0.00 | 75 | 1008.0 |
| 20260505222538 | 11 | 41 | 8.0 | 24.1 | 0.00 | 0.00 | 0.00 | 75 | 1008.0 |
| 20260505222028 | 11 | 52 | 9.7 | 22.5 | 0.00 | 0.00 | 0.00 | 75 | 1008.0 |
| 20260505221528 | 11 | 326 | 4.8 | 24.1 | 0.00 | 0.00 | 0.00 | 75 | 1007.9 |
| 20260505221025 | 11 | 320 | 8.0 | 25.7 | 0.00 | 0.00 | 0.00 | 75 | 1007.8 |
| 20260505220519 | 11 | 357 | 8.0 | 25.7 | 0.00 | 0.00 | 0.00 | 75 | 1007.9 |
| 20260505220026 | 11 | 67 | 12.9 | 24.1 | 0.00 | 0.00 | 0.00 | 75 | 1007.4 |
| 20260505215520 | 11 | 357 | 9.7 | 24.1 | 0.00 | 0.00 | 0.00 | 74 | 1007.3 |
| 20260505215016 | 11 | 49 | 6.4 | 24.1 | 0.00 | 0.00 | 0.00 | 75 | 1007.3 |
| 20260505214516 | 11 | 357 | 6.4 | 19.3 | 0.00 | 0.00 | 0.00 | 75 | 1007.3 |
| 20260505214017 | 11 | 357 | 8.0 | 22.5 | 0.00 | 0.00 | 0.00 | 75 | 1007.4 |
| 20260505213515 | 11 | 17 | 6.4 | 22.5 | 0.00 | 0.00 | 0.00 | 75 | 1007.5 |
| 20260505213014 | 12 | 75 | 9.7 | 24.1 | 0.00 | 0.00 | 0.00 | 75 | 1007.4 |
| 20260505212513 | 12 | 357 | 8.0 | 25.7 | 0.00 | 0.00 | 0.00 | 75 | 1007.6 |
| 20260505212012 | 12 | 71 | 8.0 | 25.7 | 0.00 | 0.00 | 0.00 | 75 | 1007.3 |
| 20260505211514 | 12 | 357 | 9.7 | 29.0 | 0.00 | 0.00 | 0.00 | 75 | 1006.5 |
| 20260505211011 | 12 | 357 | 12.9 | 29.0 | 0.00 | 0.00 | 0.00 | 75 | 1007.1 |
| 20260505210510 | 12 | 357 | 6.4 | 27.4 | 0.00 | 0.00 | 0.00 | 75 | 1005.9 |
| 20260505210014 | 12 | 357 | 6.4 | 25.7 | 0.00 | 0.00 | 0.00 | 76 | 1006.3 |
| 20260505205511 | 12 | 357 | 9.7 | 25.7 | 0.00 | 0.00 | 0.00 | 75 | 1006.8 |
| 20260505205014 | 12 | 54 | 9.7 | 24.1 | 0.00 | 0.00 | 0.00 | 76 | 1006.5 |
| 20260505204510 | 12 | 27 | 8.0 | 24.1 | 0.00 | 0.00 | 0.00 | 77 | 1006.8 |
| 20260505204009 | 12 | 357 | 8.0 | 24.1 | 0.00 | 0.00 | 0.00 | 77 | 1007.0 |
| 20260505203509 | 12 | 357 | 6.4 | 19.3 | 0.00 | 0.00 | 0.00 | 79 | 1006.9 |
| 20260505203013 | 12 | 37 | 8.0 | 24.1 | 0.00 | 0.00 | 0.00 | 78 | 1006.9 |
| 20260505202508 | 12 | 43 | 11.3 | 24.1 | 0.00 | 0.00 | 0.00 | 79 | 1007.2 |
| 20260505202007 | 12 | 357 | 6.4 | 22.5 | 0.00 | 0.00 | 0.00 | 80 | 1006.9 |
| 20260505201512 | 12 | 357 | 8.0 | 22.5 | 0.00 | 0.00 | 0.00 | 80 | 1006.9 |
| 20260505201006 | 12 | 357 | 9.7 | 25.7 | 0.00 | 0.00 | 0.00 | 80 | 1006.9 |
| 20260505200503 | 12 | 75 | 11.3 | 25.7 | 0.00 | 0.00 | 0.00 | 79 | 1006.5 |
| 20260505200002 | 12 | 2 | 6.4 | 19.3 | 0.00 | 0.00 | 0.00 | 80 | 1006.2 |
| 20260505195501 | 12 | 72 | 9.7 | 24.1 | 0.00 | 0.00 | 0.00 | 80 | 1006.4 |
| 20260505195001 | 12 | 357 | 9.7 | 25.7 | 0.00 | 0.00 | 0.00 | 80 | 1006.3 |
| 20260505194600 | 12 | 68 | 12.9 | 30.6 | 0.00 | 0.00 | 0.00 | 79 | 1005.9 |
| 20260505194059 | 12 | 357 | 11.3 | 30.6 | 0.00 | 0.00 | 0.00 | 79 | 1006.2 |
| 20260505193602 | 13 | 53 | 6.4 | 17.7 | 0.00 | 0.00 | 0.00 | 80 | 1006.4 |
| 20260505193058 | 12 | 357 | 6.4 | 22.5 | 0.00 | 0.00 | 0.00 | 80 | 1006.3 |
| 20260505192557 | 12 | 357 | 11.3 | 20.9 | 0.00 | 0.00 | 0.00 | 80 | 1006.4 |
| 20260505192057 | 12 | 46 | 9.7 | 22.5 | 0.00 | 0.00 | 0.00 | 79 | 1006.3 |
| 20260505191613 | 13 | 29 | 11.3 | 24.1 | 0.00 | 0.00 | 0.00 | 79 | 1006.2 |
| 20260505191056 | 13 | 314 | 11.3 | 24.1 | 0.00 | 0.00 | 0.00 | 79 | 1006.0 |
| 20260505190555 | 13 | 357 | 9.7 | 24.1 | 0.00 | 0.00 | 0.00 | 79 | 1005.8 |
| 20260505190055 | 13 | 357 | 8.0 | 24.1 | 0.00 | 0.00 | 0.00 | 79 | 1005.7 |
| 20260505185558 | 13 | 357 | 9.7 | 24.1 | 0.00 | 0.00 | 0.00 | 80 | 1005.9 |
| 20260505185054 | 13 | 357 | 11.3 | 24.1 | 0.00 | 0.00 | 0.00 | 80 | 1005.8 |
| 20260505184554 | 13 | 2 | 6.4 | 24.1 | 0.00 | 0.00 | 0.00 | 81 | 1005.7 |
| 20260505184054 | 13 | 357 | 14.5 | 27.4 | 0.00 | 0.00 | 0.00 | 80 | 1005.9 |
| 20260505183655 | 13 | 357 | 12.9 | 27.4 | 0.00 | 0.00 | 0.00 | 80 | 1005.9 |
| 20260505183050 | 13 | 357 | 6.4 | 24.1 | 0.00 | 0.00 | 0.00 | 81 | 1005.9 |
| 20260505182548 | 13 | 62 | 6.4 | 19.3 | 0.00 | 0.00 | 0.00 | 81 | 1005.6 |
| 20260505182052 | 13 | 36 | 8.0 | 19.3 | 0.00 | 0.00 | 0.00 | 81 | 1005.6 |
| 20260505181547 | 13 | 27 | 9.7 | 27.4 | 0.00 | 0.00 | 0.00 | 81 | 1005.2 |
| 20260505181046 | 13 | 13 | 12.9 | 32.2 | 0.00 | 0.00 | 0.00 | 80 | 1005.1 |
| 20260505180544 | 13 | 357 | 9.7 | 25.7 | 0.00 | 0.00 | 0.00 | 80 | 1005.0 |
| 20260505180058 | 13 | 357 | 9.7 | 32.2 | 0.00 | 0.00 | 0.00 | 80 | 1005.0 |
| 20260505175542 | 13 | 357 | 9.7 | 32.2 | 0.00 | 0.00 | 0.00 | 80 | 1004.9 |
| 20260505175041 | 13 | 357 | 9.7 | 29.0 | 0.00 | 0.00 | 0.00 | 81 | 1004.8 |
| 20260505174551 | 13 | 357 | 9.7 | 27.4 | 0.00 | 0.00 | 0.00 | 81 | 1004.7 |
| 20260505174041 | 13 | 357 | 9.7 | 27.4 | 0.00 | 0.00 | 0.00 | 81 | 1004.8 |
| 20260505173538 | 13 | 357 | 12.9 | 27.4 | 0.00 | 0.00 | 0.00 | 81 | 1004.8 |
| 20260505173039 | 13 | 52 | 9.7 | 29.0 | 0.00 | 0.00 | 0.00 | 82 | 1004.6 |
| 20260505172537 | 13 | 357 | 8.0 | 29.0 | 0.00 | 0.00 | 0.00 | 82 | 1004.7 |
| 20260505172036 | 13 | 68 | 4.8 | 25.7 | 0.00 | 0.00 | 0.00 | 82 | 1004.4 |
| 20260505171535 | 13 | 357 | 11.3 | 25.7 | 0.00 | 0.00 | 0.00 | 82 | 1004.5 |
| 20260505171035 | 13 | 357 | 9.7 | 33.8 | 0.00 | 0.00 | 0.00 | 81 | 1004.3 |
| 20260505170536 | 13 | 357 | 9.7 | 33.8 | 0.00 | 0.00 | 0.00 | 81 | 1004.2 |
| 20260505170032 | 14 | 62 | 12.9 | 30.6 | 0.00 | 0.00 | 0.00 | 81 | 1003.8 |
| 20260505165532 | 15 | 357 | 11.3 | 27.4 | 0.00 | 0.00 | 0.00 | 80 | 1003.8 |
| 20260505165031 | 15 | 357 | 8.0 | 27.4 | 0.00 | 0.00 | 0.00 | 80 | 1003.7 |
| 20260505164528 | 15 | 21 | 12.9 | 30.6 | 0.00 | 0.00 | 0.00 | 81 | 1003.7 |
| 20260505164029 | 16 | 357 | 9.7 | 30.6 | 0.00 | 0.00 | 0.00 | 81 | 1003.5 |
| 20260505163525 | 16 | 357 | 12.9 | 25.7 | 0.00 | 0.00 | 0.00 | 80 | 1003.3 |
| 20260505163028 | 16 | 357 | 8.0 | 29.0 | 0.00 | 0.00 | 0.00 | 80 | 1003.2 |
| 20260505162522 | 16 | 6 | 8.0 | 29.0 | 0.00 | 0.00 | 0.00 | 80 | 1003.0 |
| 20260505162020 | 17 | 25 | 8.0 | 20.9 | 0.00 | 0.00 | 0.00 | 80 | 1002.6 |
| 20260505161519 | 17 | 357 | 6.4 | 27.4 | 0.00 | 0.00 | 0.00 | 80 | 1002.5 |
| 20260505161018 | 17 | 58 | 9.7 | 29.0 | 0.00 | 0.00 | 0.00 | 80 | 1002.0 |
| 20260505160518 | 17 | 357 | 8.0 | 27.4 | 0.00 | 0.00 | 0.00 | 79 | 1001.8 |
| 20260505153012 | 21 | 341 | 4.8 | 17.7 | 0.00 | 0.00 | 0.00 | 79 | 1000.9 |
| 20260505152513 | 22 | 357 | 9.7 | 19.3 | 0.00 | 0.00 | 0.00 | 77 | 1001.0 |
| 20260505152008 | 22 | 357 | 3.2 | 8.0 | 0.00 | 0.00 | 0.00 | 74 | 1000.7 |
| 20260505151507 | 22 | 21 | 1.6 | 6.4 | 0.00 | 0.00 | 0.00 | 74 | 1000.5 |
| 20260505151006 | 22 | 33 | 1.6 | 6.4 | 0.00 | 0.00 | 0.00 | 74 | 1000.4 |
| 20260505150505 | 22 | 88 | 0.0 | 0.0 | 0.00 | 0.00 | 0.00 | 75 | 1000.2 |
| 20260505140556 | 22 | 81 | 0.0 | 0.0 | 0.00 | 0.00 | 0.00 | 76 | 999.8 |
| 20260505125034 | 20 | 78 | 0.0 | 3.2 | 0.00 | 0.00 | 0.00 | 80 | 999.6 |
| 20260505124632 | 20 | 79 | 0.0 | 3.2 | 0.00 | 0.00 | 0.00 | 80 | 999.5 |
| 20260505124032 | 20 | 79 | 0.0 | 3.2 | 0.00 | 0.00 | 0.00 | 79 | 999.5 |
| 20260505123533 | 20 | 78 | 1.6 | 3.2 | 0.00 | 0.00 | 0.00 | 79 | 999.5 |
| 20260505123034 | 20 | 183 | 0.0 | 3.2 | 0.00 | 0.00 | 0.00 | 79 | 999.4 |
| 20260505122530 | 20 | 183 | 0.0 | 6.4 | 0.00 | 0.00 | 0.00 | 79 | 999.3 |
| 20260505122032 | 20 | 183 | 1.6 | 6.4 | 0.00 | 0.00 | 0.00 | 78 | 999.1 |
| 20260505121529 | 21 | 182 | 0.0 | 6.4 | 0.00 | 0.00 | 0.00 | 78 | 998.9 |
| 20260505121030 | 21 | 182 | 0.0 | 8.0 | 0.00 | 0.00 | 0.00 | 78 | 998.7 |
| 20260505120531 | 21 | 182 | 3.2 | 8.0 | 0.00 | 0.00 | 0.00 | 78 | 998.5 |
| 20260505120030 | 21 | 167 | 3.2 | 9.7 | 0.00 | 0.00 | 0.00 | 78 | 998.5 |
| 20260505115526 | 21 | 180 | 4.8 | 12.9 | 0.00 | 0.00 | 0.00 | 78 | 998.5 |
| 20260505115026 | 21 | 214 | 4.8 | 12.9 | 0.00 | 0.00 | 0.00 | 78 | 998.4 |
| 20260505114626 | 21 | 137 | 3.2 | 9.7 | 0.00 | 0.00 | 0.00 | 77 | 998.2 |
| 20260505114128 | 21 | 158 | 4.8 | 9.7 | 0.00 | 0.00 | 0.00 | 77 | 998.1 |
| 20260505113536 | 21 | 152 | 4.8 | 11.3 | 0.00 | 0.00 | 0.00 | 77 | 997.9 |
| 20260505113041 | 21 | 179 | 3.2 | 16.1 | 0.00 | 0.00 | 0.00 | 77 | 997.8 |
| 20260505112536 | 21 | 137 | 4.8 | 16.1 | 0.00 | 0.00 | 0.00 | 77 | 997.7 |
| 20260505112039 | 21 | 158 | 1.6 | 12.9 | 0.00 | 0.00 | 0.00 | 77 | 997.6 |
| 20260505111535 | 21 | 156 | 3.2 | 12.9 | 0.00 | 0.00 | 0.00 | 77 | 997.3 |
| 20260505111035 | 21 | 220 | 4.8 | 11.3 | 0.00 | 0.00 | 0.00 | 77 | 997.5 |
| 20260505110538 | 21 | 163 | 4.8 | 11.3 | 0.00 | 0.00 | 0.00 | 77 | 997.6 |
| 20260505102030 | 21 | 171 | 9.7 | 22.5 | 0.00 | 0.00 | 0.00 | 76 | 997.3 |
| 20260505101548 | 21 | 177 | 6.4 | 19.3 | 0.00 | 0.00 | 0.00 | 75 | 997.4 |
| 20260505101032 | 21 | 160 | 6.4 | 16.1 | 0.00 | 0.00 | 0.00 | 75 | 997.4 |
| 20260505100529 | 21 | 194 | 6.4 | 16.1 | 0.00 | 0.00 | 0.00 | 75 | 997.4 |
| 20260505100052 | 21 | 172 | 4.8 | 19.3 | 0.00 | 0.00 | 0.00 | 75 | 997.4 |
| 20260505095531 | 21 | 184 | 8.0 | 17.7 | 0.00 | 0.00 | 0.00 | 75 | 997.3 |
| 20260505095028 | 21 | 154 | 8.0 | 19.3 | 0.00 | 0.00 | 0.00 | 75 | 997.2 |
| 20260505094531 | 21 | 183 | 9.7 | 19.3 | 0.00 | 0.00 | 0.00 | 75 | 997.2 |
| 20260505094028 | 21 | 137 | 8.0 | 19.3 | 0.00 | 0.00 | 0.00 | 75 | 997.3 |
| 20260505093528 | 21 | 152 | 9.7 | 19.3 | 0.00 | 0.00 | 0.00 | 75 | 997.4 |
| 20260505093027 | 21 | 176 | 6.4 | 17.7 | 0.00 | 0.00 | 0.00 | 75 | 997.4 |
| 20260505092527 | 21 | 357 | 6.4 | 17.7 | 0.00 | 0.00 | 0.00 | 75 | 997.3 |
| 20260505092025 | 21 | 186 | 9.7 | 16.1 | 0.00 | 0.00 | 0.00 | 75 | 997.3 |
| 20260505091526 | 21 | 194 | 8.0 | 16.1 | 0.00 | 0.00 | 0.00 | 75 | 997.5 |
| 20260505091025 | 21 | 173 | 6.4 | 16.1 | 0.00 | 0.00 | 0.00 | 75 | 997.5 |
| 20260505090525 | 21 | 182 | 6.4 | 12.9 | 0.00 | 0.00 | 0.00 | 75 | 997.5 |
| 20260505090026 | 21 | 140 | 6.4 | 17.7 | 0.00 | 0.00 | 0.00 | 75 | 997.6 |
| 20260505085524 | 21 | 174 | 6.4 | 16.1 | 0.00 | 0.00 | 0.00 | 75 | 997.7 |
| 20260505085024 | 21 | 168 | 6.4 | 16.1 | 0.00 | 0.00 | 0.00 | 75 | 997.7 |
| 20260505084524 | 21 | 166 | 6.4 | 17.7 | 0.00 | 0.00 | 0.00 | 75 | 997.7 |
| 20260505084024 | 21 | 158 | 6.4 | 16.1 | 0.00 | 0.00 | 0.00 | 75 | 997.6 |
| 20260505083524 | 21 | 159 | 8.0 | 16.1 | 0.00 | 0.00 | 0.00 | 75 | 997.6 |
| 20260505083024 | 21 | 173 | 6.4 | 17.7 | 0.00 | 0.00 | 0.00 | 75 | 997.7 |
| 20260505082521 | 21 | 156 | 9.7 | 19.3 | 0.00 | 0.00 | 0.00 | 76 | 997.8 |
| 20260505082021 | 21 | 165 | 9.7 | 19.3 | 0.00 | 0.00 | 0.00 | 76 | 997.8 |
| 20260505081521 | 21 | 181 | 8.0 | 22.5 | 0.00 | 0.00 | 0.00 | 76 | 997.9 |
| 20260505081003 | 21 | 205 | 8.0 | 22.5 | 0.00 | 0.00 | 0.00 | 75 | 997.9 |
| 20260505080502 | 21 | 179 | 6.4 | 20.9 | 0.00 | 0.00 | 0.00 | 75 | 997.9 |
| 20260505080001 | 21 | 199 | 11.3 | 20.9 | 0.00 | 0.00 | 0.00 | 75 | 998.0 |
| 20260505075601 | 21 | 172 | 9.7 | 22.5 | 0.00 | 0.00 | 0.00 | 75 | 998.0 |
| 20260505075102 | 21 | 181 | 12.9 | 19.3 | 0.00 | 0.00 | 0.00 | 75 | 998.1 |
| 20260505074559 | 21 | 172 | 11.3 | 22.5 | 0.00 | 0.00 | 0.00 | 75 | 998.1 |
| 20260505074059 | 21 | 172 | 8.0 | 24.1 | 0.00 | 0.00 | 0.00 | 75 | 998.3 |
| 20260505073559 | 21 | 116 | 11.3 | 22.5 | 0.00 | 0.00 | 0.00 | 75 | 998.2 |
| 20260505073104 | 21 | 162 | 9.7 | 22.5 | 0.00 | 0.00 | 0.00 | 75 | 998.2 |
| 20260505072557 | 21 | 172 | 11.3 | 24.1 | 0.00 | 0.00 | 0.00 | 75 | 998.3 |
| 20260505072057 | 21 | 183 | 9.7 | 22.5 | 0.00 | 0.00 | 0.00 | 75 | 998.5 |
| 20260505071558 | 21 | 183 | 9.7 | 22.5 | 0.00 | 0.00 | 0.00 | 75 | 998.5 |
| 20260505071056 | 21 | 357 | 11.3 | 24.1 | 0.00 | 0.00 | 0.00 | 75 | 998.5 |
| 20260505070556 | 21 | 163 | 6.4 | 20.9 | 0.00 | 0.00 | 0.00 | 75 | 998.5 |
| 20260505070059 | 21 | 164 | 8.0 | 24.1 | 0.00 | 0.00 | 0.00 | 75 | 998.6 |
| 20260505065555 | 21 | 149 | 9.7 | 25.7 | 0.00 | 0.00 | 0.00 | 75 | 998.7 |
| 20260505065054 | 21 | 175 | 9.7 | 30.6 | 0.00 | 0.00 | 0.00 | 75 | 998.7 |
| 20260505064553 | 21 | 198 | 14.5 | 30.6 | 0.00 | 0.00 | 0.00 | 75 | 998.7 |
| 20260505064054 | 21 | 191 | 11.3 | 30.6 | 0.00 | 0.00 | 0.00 | 75 | 998.7 |
| 20260505063552 | 21 | 168 | 11.3 | 25.7 | 0.00 | 0.00 | 0.00 | 75 | 998.9 |
| 20260505063055 | 21 | 163 | 12.9 | 22.5 | 0.00 | 0.00 | 0.00 | 75 | 999.0 |
| 20260505062550 | 21 | 140 | 9.7 | 20.9 | 0.00 | 0.00 | 0.00 | 75 | 999.0 |
| 20260505062049 | 21 | 169 | 12.9 | 20.9 | 0.00 | 0.00 | 0.00 | 75 | 999.1 |
| 20260505061550 | 21 | 199 | 11.3 | 20.9 | 0.00 | 0.00 | 0.00 | 75 | 999.1 |
| 20260505061048 | 21 | 185 | 9.7 | 22.5 | 0.00 | 0.00 | 0.00 | 75 | 999.2 |
| 20260505060548 | 21 | 172 | 8.0 | 17.7 | 0.00 | 0.00 | 0.00 | 74 | 999.2 |
| 20260505060048 | 22 | 148 | 11.3 | 24.1 | 0.00 | 0.00 | 0.00 | 74 | 999.3 |
| 20260505055547 | 22 | 208 | 9.7 | 24.1 | 0.00 | 0.00 | 0.00 | 74 | 999.3 |
| 20260505055048 | 22 | 123 | 4.8 | 20.9 | 0.00 | 0.00 | 0.00 | 74 | 999.4 |
| 20260505054548 | 22 | 196 | 11.3 | 20.9 | 0.00 | 0.00 | 0.00 | 74 | 999.4 |
| 20260505054045 | 22 | 187 | 11.3 | 20.9 | 0.00 | 0.00 | 0.00 | 74 | 999.4 |
| 20260505053544 | 22 | 357 | 9.7 | 24.1 | 0.00 | 0.00 | 0.00 | 73 | 999.4 |
| 20260505053047 | 22 | 114 | 11.3 | 25.7 | 0.00 | 0.00 | 0.00 | 73 | 999.4 |
| 20260505052543 | 22 | 186 | 12.9 | 25.7 | 0.00 | 0.00 | 0.00 | 74 | 999.4 |
| 20260505052042 | 22 | 182 | 8.0 | 20.9 | 0.00 | 0.00 | 0.00 | 73 | 999.6 |
| 20260505051543 | 22 | 156 | 11.3 | 20.9 | 0.00 | 0.00 | 0.00 | 73 | 999.5 |
| 20260505051042 | 22 | 187 | 9.7 | 22.5 | 0.00 | 0.00 | 0.00 | 73 | 999.5 |
| 20260505050539 | 22 | 149 | 11.3 | 24.1 | 0.00 | 0.00 | 0.00 | 73 | 999.5 |
| 20260505041537 | 22 | 232 | 12.9 | 27.4 | 0.00 | 0.00 | 0.00 | 72 | 999.9 |
| 20260505041036 | 22 | 131 | 8.0 | 24.1 | 0.00 | 0.00 | 0.00 | 72 | 999.8 |
| 20260505040536 | 22 | 357 | 11.3 | 22.5 | 0.00 | 0.00 | 0.00 | 72 | 999.9 |
| 20260505040036 | 22 | 166 | 9.7 | 29.0 | 0.00 | 0.00 | 0.00 | 72 | 999.9 |
| 20260505035535 | 22 | 185 | 9.7 | 29.0 | 0.00 | 0.00 | 0.00 | 72 | 1000.0 |
| 20260505035035 | 22 | 163 | 9.7 | 20.9 | 0.00 | 0.00 | 0.00 | 72 | 999.9 |
| 20260505034535 | 22 | 177 | 9.7 | 24.1 | 0.00 | 0.00 | 0.00 | 71 | 999.8 |
| 20260505034034 | 22 | 145 | 12.9 | 22.5 | 0.00 | 0.00 | 0.00 | 72 | 999.9 |
| 20260505033535 | 22 | 129 | 11.3 | 29.0 | 0.00 | 0.00 | 0.00 | 71 | 999.9 |
| 20260505033034 | 22 | 135 | 14.5 | 29.0 | 0.00 | 0.00 | 0.00 | 71 | 999.9 |
| 20260505032535 | 22 | 178 | 11.3 | 24.1 | 0.00 | 0.00 | 0.00 | 71 | 999.9 |
| 20260505032033 | 22 | 177 | 12.9 | 29.0 | 0.00 | 0.00 | 0.00 | 70 | 999.8 |
| 20260505031538 | 23 | 172 | 11.3 | 24.1 | 0.00 | 0.00 | 0.00 | 70 | 999.8 |
| 20260505031034 | 23 | 164 | 12.9 | 22.5 | 0.00 | 0.00 | 0.00 | 70 | 999.8 |
| 20260505030533 | 23 | 189 | 11.3 | 27.4 | 0.00 | 0.00 | 0.00 | 69 | 999.8 |
| 20260505030033 | 23 | 185 | 9.7 | 27.4 | 0.00 | 0.00 | 0.00 | 69 | 999.9 |